GW4091 Weather Reports


time (UTC)temp
C
wind
direction
speed
KPH
gust
KPH
rain 1hr
cm
rain 24hr
cm
rain mn
cm
humidity
%
barometer
mb
20260509111528 17 161 0.0 0.0 0.00 0.00 0.00 90 1013.5
20260509110033 16 161 0.0 0.0 0.00 0.00 0.00 90 1013.3
20260509104537 17 161 0.0 0.0 0.00 0.00 0.00 90 1013.1
20260509103018 17 161 0.0 0.0 0.00 0.00 0.00 89 1012.9
20260509101527 17 161 0.0 0.0 0.00 0.00 0.00 89 1012.7
20260509100028 17 161 0.0 0.0 0.00 0.00 0.00 89 1012.8
20260509094529 17 161 0.0 0.0 0.00 0.00 0.00 89 1013.0
20260509093015 17 161 0.0 0.0 0.00 0.00 0.00 89 1013.1
20260509091524 17 161 0.0 0.0 0.00 0.00 0.00 88 1013.1
20260509090028 17 161 0.0 0.0 0.00 0.00 0.00 88 1013.2
20260509084542 17 161 0.0 0.0 0.00 0.00 0.00 88 1013.3
20260509083031 17 57 0.0 0.0 0.00 0.00 0.00 88 1012.9
20260509081536 17 59 0.0 0.0 0.00 0.00 0.00 87 1013.4
20260509080046 17 78 0.0 0.0 0.00 0.00 0.00 87 1013.5
20260509074506 17 318 0.0 0.0 0.00 0.00 0.00 87 1013.6
20260509073032 17 20 0.0 0.0 0.00 0.00 0.00 86 1013.5
20260509071520 17 13 0.0 0.0 0.00 0.00 0.00 86 1013.3
20260509070025 17 19 1.6 3.2 0.00 0.00 0.00 85 1013.3
20260509064509 17 327 0.0 3.2 0.00 0.00 0.00 85 1013.8
20260509063012 17 59 1.6 4.8 0.00 0.00 0.00 85 1013.6
20260509061528 17 300 0.0 8.0 0.00 0.00 0.00 84 1014.8
20260509060030 18 153 0.0 3.2 0.00 0.00 0.00 84 1014.4
20260509054528 17 56 0.0 3.2 0.00 0.00 0.00 84 1014.5
20260509053035 17 313 1.6 4.8 0.00 0.00 0.00 83 1014.5
20260509051516 17 52 0.0 3.2 0.00 0.00 0.00 83 1014.6
20260509050030 17 35 1.6 4.8 0.00 0.00 0.00 83 1015.0
20260509044533 17 9 0.0 3.2 0.00 0.00 0.00 83 1015.7
20260509043030 18 34 0.0 3.2 0.00 0.00 0.00 82 1015.7
20260509041512 18 46 0.0 3.2 0.00 0.00 0.00 82 1015.2
20260509040035 18 71 0.0 3.2 0.00 0.00 0.00 82 1015.9
20260509034525 18 36 0.0 0.0 0.00 0.00 0.00 81 1016.1
20260509033023 18 36 0.0 0.0 0.00 0.00 0.00 80 1015.9
20260509031531 18 36 0.0 3.2 0.00 0.00 0.00 79 1016.0
20260509030012 18 36 0.0 3.2 0.00 0.00 0.00 79 1016.2
20260509024518 18 36 0.0 0.0 0.00 0.00 0.00 79 1016.3
20260509023024 18 22 0.0 3.2 0.00 0.00 0.00 79 1015.9
20260509021526 18 41 0.0 3.2 0.00 0.00 0.00 77 1016.0
20260509020033 18 94 0.0 1.6 0.00 0.00 0.00 77 1015.8
20260509014533 18 74 0.0 3.2 0.00 0.00 0.00 76 1015.9
20260509013023 18 9 0.0 3.2 0.00 0.00 0.00 76 1015.8
20260509011524 18 69 0.0 3.2 0.00 0.00 0.00 75 1015.7
20260509010032 18 148 1.6 4.8 0.00 0.00 0.00 74 1015.6
20260509004517 18 153 0.0 4.8 0.00 0.00 0.00 73 1015.6
20260509003035 18 123 0.0 8.0 0.00 0.00 0.00 72 1015.4
20260509001525 19 69 1.6 4.8 0.00 0.00 0.00 71 1015.3
20260509000028 19 86 0.0 3.2 0.00 0.00 0.00 70 1015.2
20260508234512 19 360 1.6 6.4 0.00 0.00 0.00 69 1015.0
20260508233016 20 96 0.0 8.0 0.00 0.00 0.00 68 1014.9
20260508231519 20 86 0.0 6.4 0.00 0.00 0.00 66 1015.0
20260508230026 20 171 0.0 3.2 0.00 0.00 0.00 65 1015.2
20260508224528 20 149 1.6 6.4 0.00 0.00 0.00 64 1015.0
20260508223028 20 139 0.0 11.3 0.00 0.00 0.00 64 1015.1
20260508221528 20 161 3.2 8.0 0.00 0.00 0.00 63 1014.9
20260508220024 20 135 1.6 6.4 0.00 0.00 0.00 65 1015.2
20260508214529 20 78 1.6 6.4 0.00 0.00 0.00 65 1014.9
20260508213013 20 79 3.2 12.9 0.00 0.00 0.00 63 1015.0
20260508211536 20 165 1.6 9.7 0.00 0.00 0.00 63 1015.1
20260508210030 21 136 4.8 12.9 0.00 0.00 0.00 63 1015.0
20260508204527 21 140 3.2 11.3 0.00 0.00 0.00 64 1014.9
20260508203028 21 56 3.2 14.5 0.00 0.00 0.00 62 1015.0
20260508201532 21 52 6.4 19.3 0.00 0.00 0.00 59 1014.8
20260508200027 22 117 4.8 11.3 0.00 0.00 0.00 59 1015.2
20260508194530 21 138 4.8 17.7 0.00 0.00 0.00 59 1015.4
20260508193029 22 150 4.8 14.5 0.00 0.00 0.00 57 1015.5
20260508191509 23 152 4.8 12.9 0.00 0.00 0.00 53 1015.2
20260508190004 25 161 3.2 9.7 0.00 0.00 0.00 45 1015.4
20260508184507 23 111 1.6 6.4 0.00 0.00 0.00 46 1015.6
20260508183003 23 155 1.6 9.7 0.00 0.00 0.00 46 1015.7
20260508181505 23 71 4.8 11.3 0.00 0.00 0.00 47 1015.9
20260508180004 23 169 1.6 6.4 0.00 0.00 0.00 46 1016.0
20260508174506 23 43 1.6 14.5 0.00 0.00 0.00 45 1016.2
20260508173007 22 142 3.2 16.1 0.00 0.00 0.00 45 1016.3
20260508171518 22 32 3.2 6.4 0.00 0.00 0.00 46 1016.3
20260508170005 22 52 1.6 16.1 0.00 0.00 0.00 44 1016.6
20260508164504 23 23 6.4 12.9 0.00 0.00 0.00 41 1016.6
20260508163006 22 57 6.4 12.9 0.00 0.00 0.00 46 1016.8
20260508161506 21 36 9.7 17.7 0.00 0.00 0.00 47 1017.3
20260508160013 21 91 8.0 14.5 0.00 0.00 0.00 50 1017.7
20260508154510 21 9 9.7 19.3 0.00 0.00 0.00 51 1017.9
20260508153008 21 49 14.5 17.7 0.00 0.00 0.00 52 1017.9
20260508151511 21 49 6.4 14.5 0.00 0.00 0.00 54 1017.9
20260508150009 20 26 4.8 20.9 0.00 0.00 0.00 55 1017.9
20260508144510 20 49 11.3 24.1 0.00 0.00 0.00 56 1017.9
20260508143009 19 27 4.8 16.1 0.00 0.00 0.00 61 1017.8
20260508141519 18 30 1.6 19.3 0.00 0.00 0.00 62 1017.4
20260508140019 18 9 3.2 20.9 0.00 0.00 0.00 66 1017.6
20260508134512 17 45 12.9 25.7 0.00 0.03 0.00 68 1017.5
20260508133014 16 61 9.7 22.5 0.00 0.03 0.00 73 1017.2
20260508131525 16 32 9.7 22.5 0.00 0.03 0.00 78 1017.1
20260508130013 16 48 8.0 17.7 0.00 0.03 0.00 82 1016.9
20260508124526 15 59 6.4 12.9 0.00 0.03 0.00 84 1016.9
20260508123024 15 13 3.2 14.5 0.00 0.03 0.00 86 1016.7
20260508121516 15 46 1.6 12.9 0.00 0.03 0.00 87 1016.5
20260508120015 15 25 3.2 14.5 0.00 0.03 0.00 87 1016.4
20260508114518 15 28 4.8 14.5 0.00 0.03 0.00 88 1016.0
20260508113016 15 28 4.8 12.9 0.00 0.03 0.00 88 1015.8